Weather History for KCDN - February, 2013

Change the Weather History Date:

Friday, February 1, 2013

  Actual Average (KSSC) Record (KSSC)
Temperature  
Mean Temperature 39 °F -  
Max Temperature 48 °F 54 °F 80 °F (2002)
Min Temperature 30 °F 33 °F 24 °F (2000)
Degree Days  
Heating Degree Days 26    
Moisture  
Dew Point 17 °F    
Average Humidity 40    
Maximum Humidity 61    
Minimum Humidity 16    
Precipitation  
Precipitation 0.00 in - - ()
Sea Level Pressure  
Sea Level Pressure 30.21 in    
Wind  
Wind Speed 9 mph (West)    
Max Wind Speed 21 mph    
Max Gust Speed 28 mph    
Visibility 10 miles    
Events      
Averages and records for this station are not official NWS values.
T = Trace of Precipitation, MM = Missing Value Source: NWS Daily Summary

Daily Weather History Graph

Daily Weather History Graph

Search for Another Location

Airport or City:

Trip Planner

Search our weather history database for the weather conditions in past years. The results will help you decide how hot, cold, wet, or windy it might be!

Date:

Astronomy

Feb. 01, 2013 Rise Set
Actual Time 7:19 AM EST 5:52 PM EST
Civil Twilight 6:53 AM EST 6:18 PM EST
Nautical Twilight 6:23 AM EST 6:48 PM EST
Astronomical Twilight 5:53 AM EST 7:18 PM EST
Moon 11:39 PM EST (2/1) 10:09 AM EST (2/1)
Length of Visible Light 11h 25m
Length of Day
10h 33m
Waning Gibbous, 70% of the Moon is Illuminated
Feb 1
Waning Gibbous
Feb 3
Last Quarter
Feb 10
New
Feb 17
First Quarter
Feb 25
Full

Hourly Weather History & Observations

Time (EST) Temp. Windchill Dew Point Humidity Pressure Visibility Wind Dir Wind Speed Gust Speed Precip Events Conditions
12:15 AM 42.8 °F 37.0 °F 26.6 °F 53% 30.13 in 10.0 mi SW 10.4 mph 16.1 mph 0.00 in   Clear
12:35 AM 42.8 °F 37.5 °F 26.6 °F 53% 30.12 in 10.0 mi SW 9.2 mph - 0.00 in   Clear
12:55 AM 42.8 °F 38.0 °F 26.6 °F 53% 30.12 in 10.0 mi SW 8.1 mph - 0.00 in   Clear
1:15 AM 42.8 °F 39.3 °F 26.6 °F 53% 30.12 in 10.0 mi SSW 5.8 mph - 0.00 in   Clear
1:35 AM 41.0 °F 36.4 °F 26.6 °F 57% 30.12 in 10.0 mi SSW 6.9 mph - 0.00 in   Clear
1:55 AM 41.0 °F 37.1 °F 26.6 °F 57% 30.12 in 10.0 mi SSW 5.8 mph - 0.00 in   Clear
2:15 AM 39.2 °F 35.0 °F 26.6 °F 61% 30.11 in 10.0 mi SSW 5.8 mph - 0.00 in   Clear
2:35 AM 39.2 °F 35.0 °F 26.6 °F 61% 30.11 in 10.0 mi SSW 5.8 mph - 0.00 in   Clear
2:55 AM 39.2 °F 35.0 °F 26.6 °F 61% 30.10 in 10.0 mi SSW 5.8 mph - 0.00 in   Clear
3:15 AM 39.2 °F 35.0 °F 26.6 °F 61% 30.10 in 10.0 mi SSW 5.8 mph - 0.00 in   Clear
3:35 AM 39.2 °F 33.6 °F 26.6 °F 61% 30.09 in 10.0 mi SSW 8.1 mph - 0.00 in   Clear
3:55 AM 41.0 °F 34.7 °F 26.6 °F 57% 30.07 in 10.0 mi SSW 10.4 mph - 0.00 in   Clear
4:15 AM 41.0 °F 35.2 °F 26.6 °F 57% 30.06 in 10.0 mi SSW 9.2 mph - 0.00 in   Clear
4:35 AM 41.0 °F 35.2 °F 26.6 °F 57% 30.07 in 10.0 mi SW 9.2 mph - 0.00 in   Clear
4:55 AM 41.0 °F 34.7 °F 26.6 °F 57% 30.05 in 10.0 mi SSW 10.4 mph - 0.00 in   Clear
5:15 AM 41.0 °F 34.7 °F 26.6 °F 57% 30.05 in 10.0 mi SW 10.4 mph 16.1 mph 0.00 in   Clear
5:35 AM 42.8 °F 37.5 °F 26.6 °F 53% 30.05 in 10.0 mi SW 9.2 mph - 0.00 in   Clear
5:55 AM 42.8 °F 37.5 °F 26.6 °F 53% 30.06 in 10.0 mi SW 9.2 mph - 0.00 in   Clear
6:15 AM 42.8 °F 36.2 °F 26.6 °F 53% 30.06 in 10.0 mi SW 12.7 mph - 0.00 in   Clear
6:35 AM 42.8 °F 36.2 °F 26.6 °F 53% 30.05 in 10.0 mi SW 12.7 mph 19.6 mph 0.00 in   Clear
6:55 AM 44.6 °F 38.8 °F 26.6 °F 49% 30.06 in 10.0 mi SW 11.5 mph 18.4 mph 0.00 in   Clear
7:15 AM 44.6 °F 38.4 °F 28.4 °F 53% 30.07 in 10.0 mi SW 12.7 mph - 0.00 in   Clear
7:35 AM 44.6 °F 39.2 °F 28.4 °F 53% 30.08 in 10.0 mi SW 10.4 mph 18.4 mph 0.00 in   Clear
7:55 AM 44.6 °F 40.7 °F 28.4 °F 53% 30.09 in 10.0 mi SW 6.9 mph - 0.00 in   Clear
8:15 AM 44.6 °F 39.2 °F 28.4 °F 53% 30.11 in 10.0 mi WSW 10.4 mph - 0.00 in   Clear
8:35 AM 46.4 °F 40.4 °F 30.2 °F 53% 30.12 in 10.0 mi West 13.8 mph 19.6 mph 0.00 in   Clear
8:55 AM 48.2 °F - 30.2 °F 50% 30.13 in 10.0 mi West 18.4 mph 24.2 mph 0.00 in   Clear
9:15 AM 48.2 °F - 30.2 °F 50% 30.15 in 10.0 mi West 20.7 mph 24.2 mph 0.00 in   Clear
9:35 AM 46.4 °F 39.5 °F 30.2 °F 53% 30.16 in 10.0 mi West 17.3 mph 24.2 mph 0.00 in   Clear
9:55 AM 48.2 °F - 30.2 °F 50% 30.17 in 10.0 mi WNW 18.4 mph 27.6 mph 0.00 in   Partly Cloudy
10:15 AM 46.4 °F 39.2 °F 30.2 °F 53% 30.19 in 10.0 mi NW 18.4 mph 27.6 mph 0.00 in   Mostly Cloudy
10:35 AM 46.4 °F 39.8 °F 19.4 °F 34% 30.21 in 10.0 mi NNW 16.1 mph 24.2 mph 0.00 in   Scattered Clouds
10:55 AM 46.4 °F 38.7 °F 14.0 °F 27% 30.23 in 10.0 mi WNW 20.7 mph 27.6 mph 0.00 in   Scattered Clouds
11:15 AM 46.4 °F 40.7 °F 10.4 °F 23% 30.24 in 10.0 mi NW 12.7 mph - 0.00 in   Partly Cloudy
11:35 AM 46.4 °F 40.1 °F 6.8 °F 20% 30.24 in 10.0 mi NW 15.0 mph - 0.00 in   Clear
11:55 AM 48.2 °F - 3.2 °F 16% 30.25 in 10.0 mi WNW 13.8 mph 21.9 mph 0.00 in   Clear
12:15 PM 48.2 °F - 5.0 °F 17% 30.24 in 10.0 mi NW 15.0 mph 23.0 mph 0.00 in   Clear
12:35 PM 46.4 °F 40.1 °F 1.4 °F 16% 30.26 in 10.0 mi WNW 15.0 mph 24.2 mph 0.00 in   Clear
12:55 PM 46.4 °F 40.4 °F 5.0 °F 18% 30.25 in 10.0 mi NW 13.8 mph 18.4 mph 0.00 in   Clear
1:15 PM 48.2 °F - 5.0 °F 17% 30.25 in 10.0 mi NW 13.8 mph - 0.00 in   Clear
1:35 PM 48.2 °F - 5.0 °F 17% 30.24 in 10.0 mi WNW 12.7 mph 19.6 mph 0.00 in   Clear
1:55 PM 48.2 °F - 6.8 °F 19% 30.25 in 10.0 mi West 15.0 mph 18.4 mph 0.00 in   Clear
2:15 PM 48.2 °F - 6.8 °F 19% 30.25 in 10.0 mi West 13.8 mph 21.9 mph 0.00 in   Clear
2:35 PM 46.4 °F 39.8 °F 6.8 °F 20% 30.25 in 10.0 mi WNW 16.1 mph 21.9 mph 0.00 in   Clear
2:55 PM 48.2 °F - 3.2 °F 16% 30.26 in 10.0 mi WNW 9.2 mph 21.9 mph 0.00 in   Clear
3:15 PM 46.4 °F 40.4 °F 5.0 °F 18% 30.26 in 10.0 mi WNW 13.8 mph 17.3 mph 0.00 in   Clear
3:35 PM 46.4 °F 41.5 °F 3.2 °F 17% 30.26 in 10.0 mi NW 10.4 mph 20.7 mph 0.00 in   Clear
3:55 PM 46.4 °F 41.9 °F 3.2 °F 17% 30.27 in 10.0 mi NNW 9.2 mph - 0.00 in   Clear
4:15 PM 46.4 °F 41.1 °F 5.0 °F 18% 30.27 in 10.0 mi WNW 11.5 mph - 0.00 in   Clear
4:35 PM 46.4 °F 42.4 °F 5.0 °F 18% 30.28 in 10.0 mi WNW 8.1 mph - 0.00 in   Clear
4:55 PM 44.6 °F 39.2 °F 5.0 °F 20% 30.28 in 10.0 mi NNW 10.4 mph 16.1 mph 0.00 in   Clear
5:15 PM 44.6 °F 41.4 °F 5.0 °F 20% 30.29 in 10.0 mi NW 5.8 mph - 0.00 in   Clear
5:35 PM 44.6 °F 41.4 °F 3.2 °F 18% 30.29 in 10.0 mi NNW 5.8 mph - 0.00 in   Clear
5:55 PM 42.8 °F 38.6 °F 5.0 °F 21% 30.29 in 10.0 mi NNW 6.9 mph - 0.00 in   Clear
6:15 PM 39.2 °F 35.0 °F 5.0 °F 24% 30.30 in 10.0 mi NNW 5.8 mph - 0.00 in   Clear
6:35 PM 39.2 °F 37.0 °F 8.6 °F 28% 30.31 in 10.0 mi NNW 3.5 mph - 0.00 in   Clear
6:55 PM 37.4 °F 34.9 °F 8.6 °F 30% 30.32 in 10.0 mi NNW 3.5 mph - 0.00 in   Clear
7:15 PM 37.4 °F - 10.4 °F 33% 30.33 in 10.0 mi Calm Calm - 0.00 in   Clear
7:35 PM 35.6 °F 30.7 °F 8.6 °F 33% 30.33 in 10.0 mi NE 5.8 mph - 0.00 in   Clear
7:55 PM 35.6 °F 32.8 °F 6.8 °F 30% 30.33 in 10.0 mi North 3.5 mph - 0.00 in   Clear
8:15 PM 33.8 °F 29.6 °F 8.6 °F 35% 30.34 in 10.0 mi NNE 4.6 mph - 0.00 in   Clear
8:55 PM 32.0 °F - 15.8 °F 51% 30.35 in 10.0 mi Calm Calm - 0.00 in   Clear
9:15 PM 32.0 °F 28.7 °F 19.4 °F 60% 30.36 in 10.0 mi NNE 3.5 mph - 0.00 in   Clear
9:35 PM 32.0 °F 28.7 °F 14.0 °F 48% 30.37 in 10.0 mi NE 3.5 mph - 0.00 in   Clear
9:55 PM 32.0 °F - 12.2 °F 44% 30.37 in 10.0 mi Calm Calm - 0.00 in   Clear
10:15 PM 32.0 °F - 10.4 °F 41% 30.38 in 10.0 mi Calm Calm - 0.00 in   Clear
10:35 PM 32.0 °F - 12.2 °F 44% 30.38 in 10.0 mi Calm Calm - 0.00 in   Clear
10:55 PM 30.2 °F - 17.6 °F 60% 30.38 in 10.0 mi Calm Calm - 0.00 in   Clear
11:15 PM 30.2 °F 26.7 °F 17.6 °F 60% 30.38 in 10.0 mi NE 3.5 mph - 0.00 in   Clear
11:35 PM 30.2 °F 26.7 °F 14.0 °F 51% 30.38 in 10.0 mi ENE 3.5 mph - 0.00 in   Clear
11:55 PM 30.2 °F 25.4 °F 12.2 °F 47% 30.38 in 10.0 mi ENE 4.6 mph - 0.00 in   Clear